Temperature
1 1 1 1 1 1 1 1 2 2 2 2 2 2 2 2 2 2 2 2 2 2 2 2 2 2 2 2 2 1 1 2 2 2 1 1 1 1 1 1 1 1 1
1 1 1 1 1 1 1 1 1 1 1 1 1 1 1 1 1 1 1 1 1 1 2 1 1 1 1 1 1 1 1 1 1 1 1 1 1 1 1 1 0 0 0
-0 0 0 0 0 1 1 1 1 1 1 1 1 1 1 1 1 1 1 1 1 1 1 1 1 1 1 1 0 0 0 0 0 0 1 0 0 0 0 -0 -0 -0 -0
-1 -1 -0 -0 0 0 0 0 0 0 0 0 0 1 1 1 1 1 0 0 0 0 0 0 0 0 0 0 0 -0 -0 -0 -0 -0 -0 -0 -0 -0 -1 -1 -1 -1 -1
-1 -1 -1 -1 -1 -0 -0 -0 -0 -0 -0 -0 -0 -0 -0 -0 0 0 -0 -0 -0 -0 -0 -0 -0 -0 -0 -1 -1 -0 -0 -0 -0 -1 -1 -1 -1 -1 -1 -1 -2 -2 -2
-2 -1 -1 -1 -1 -1 -1 -1 -1 -1 -1 -1 -1 -1 -1 -1 -1 -1 -1 -1 -1 -1 -1 -1 -1 -1 -1 -1 -1 -1 -1 -1 -1 -1 -1 -1 -1 -2 -2 -2 -2 -3 -3
-2 -2 -2 -2 -2 -2 -2 -2 -2 -2 -2 -1 -1 -1 -1 -1 -1 -1 -1 -1 -1 -1 -1 -1 -1 -1 -1 -2 -2 -2 -2 -2 -2 -2 -2 -2 -2 -2 -2 -3 -3 -3 -3
-3 -3 -3 -3 -3 -3 -3 -2 -2 -2 -2 -2 -2 -2 -2 -2 -2 -2 -2 -2 -2 -2 -2 -2 -2 -2 -2 -2 -2 -2 -2 -2 -2 -3 -3 -3 -3 -3 -3 -3 -4 -4 -4
-3 -3 -3 -3 -3 -3 -3 -3 -3 -3 -3 -3 -3 -3 -3 -3 -3 -3 -3 -3 -3 -3 -3 -3 -3 -3 -3 -3 -3 -3 -3 -3 -3 -3 -4 -4 -4 -4 -4 -4 -5 -5 -5
-4 -4 -4 -4 -4 -4 -4 -4 -4 -4 -4 -3 -3 -3 -3 -3 -3 -3 -4 -4 -3 -3 -3 -3 -3 -3 -3 -4 -4 -4 -4 -4 -4 -4 -4 -4 -5 -5 -5 -5 -5 -5 -6
-5 -5 -5 -5 -5 -5 -5 -5 -5 -4 -4 -4 -4 -4 -4 -4 -4 -4 -4 -4 -4 -4 -4 -4 -4 -4 -4 -4 -5 -4 -4 -5 -5 -5 -5 -5 -5 -5 -6 -6 -6 -6 -6
-5 -5 -5 -5 -5 -5 -5 -5 -5 -5 -5 -5 -5 -5 -5 -5 -5 -5 -5 -5 -5 -5 -5 -5 -5 -5 -5 -5 -5 -5 -5 -5 -5 -6 -6 -6 -6 -6 -6 -6 -6 -6 -7
-6 -6 -6 -6 -6 -6 -6 -6 -6 -6 -6 -6 -6 -6 -6 -6 -6 -6 -5 -5 -5 -5 -5 -5 -6 -6 -6 -6 -6 -6 -6 -6 -6 -6 -6 -6 -6 -7 -7 -7 -7 -7 -7
-7 -7 -7 -7 -7 -7 -7 -7 -6 -6 -6 -7 -7 -7 -6 -6 -6 -6 -6 -6 -6 -6 -6 -6 -7 -7 -7 -7 -7 -7 -7 -7 -7 -7 -7 -7 -7 -7 -8 -8 -8 -8 -8
-7 -7 -7 -8 -8 -7 -7 -7 -7 -7 -7 -7 -7 -7 -7 -7 -7 -7 -7 -7 -7 -7 -7 -7 -7 -7 -8 -8 -8 -8 -8 -8 -8 -8 -8 -8 -8 -8 -8 -9 -9 -9 -9
-8 -8 -8 -8 -8 -8 -8 -8 -8 -8 -8 -8 -8 -8 -8 -8 -7 -7 -7 -7 -8 -8 -8 -8 -8 -8 -8 -8 -8 -8 -8 -8 -8 -8 -9 -9 -9 -9 -9 -9 -9 -10 -10
-9 -9 -9 -9 -9 -9 -9 -9 -9 -8 -8 -8 -8 -8 -8 -8 -8 -8 -8 -8 -8 -8 -8 -8 -8 -9 -9 -9 -9 -9 -9 -9 -9 -9 -9 -10 -10 -10 -10 -10 -10 -10 -10
-9 -9 -9 -9 -9 -9 -9 -9 -9 -9 -9 -9 -9 -9 -9 -9 -9 -9 -9 -9 -9 -9 -9 -9 -9 -9 -9 -9 -10 -10 -10 -10 -10 -10 -10 -10 -10 -10 -10 -11 -11 -11 -11
-10 -10 -10 -10 -10 -10 -10 -10 -10 -10 -10 -10 -10 -10 -10 -10 -10 -10 -10 -10 -10 -10 -10 -10 -10 -10 -10 -10 -10 -10 -10 -11 -11 -11 -11 -11 -11 -11 -11 -11 -11 -11 -12
-10 -10 -10 -10 -10 -10 -10 -10 -10 -10 -10 -10 -10 -10 -10 -10 -10 -10 -10 -10 -11 -11 -11 -11 -11 -11 -11 -11 -11 -11 -11 -11 -11 -11 -11 -11 -12 -12 -12 -12 -12 -12 -12
-10 -10 -10 -10 -11 -10 -10 -10 -11 -11 -11 -11 -11 -11 -11 -11 -11 -11 -11 -11 -11 -11 -11 -12 -12 -12 -12 -12 -12 -12 -12 -12 -12 -12 -12 -12 -12 -12 -12 -12 -12 -12 -13
-11 -11 -11 -11 -11 -11 -11 -11 -11 -11 -11 -11 -11 -11 -12 -12 -12 -12 -12 -12 -12 -12 -12 -12 -12 -12 -12 -12 -12 -12 -12 -12 -12 -12 -12 -12 -13 -13 -13 -13 -13 -13 -13
-11 -11 -11 -11 -11 -11 -11 -11 -11 -12 -12 -12 -12 -12 -12 -12 -12 -12 -13 -13 -13 -13 -13 -13 -13 -13 -13 -13 -13 -13 -13 -13 -13 -13 -13 -13 -13 -13 -13 -13 -13 -13 -13
-11 -11 -11 -11 -11 -12 -12 -12 -12 -12 -12 -12 -12 -12 -13 -13 -13 -13 -13 -13 -13 -13 -13 -13 -13 -13 -13 -13 -13 -13 -13 -13 -13 -13 -13 -13 -13 -14 -14 -14 -14 -14 -14
-12 -12 -12 -12 -12 -12 -12 -12 -12 -13 -13 -13 -13 -13 -13 -13 -13 -13 -14 -14 -13 -13 -13 -13 -14 -14 -14 -14 -14 -14 -14 -14 -14 -14 -14 -14 -14 -14 -14 -14 -14 -14 -14
-12 -12 -12 -12 -12 -12 -13 -13 -13 -13 -13 -13 -13 -13 -13 -13 -14 -14 -14 -14 -14 -14 -14 -14 -14 -14 -14 -14 -14 -14 -14 -14 -14 -14 -15 -14 -14 -14 -14 -14 -14 -15 -15
Wind_Speed
2 2 2 2 2 3 3 4 4 4 4 5 5 5 5 5 5 5 5 5 5 5 4 5 5 3 4 3 3 3 3 3 4 3 2 2 3 3 3 4 5 6 6
3 2 2 2 2 3 3 4 3 4 4 5 5 5 5 5 6 6 6 5 6 6 5 6 5 4 5 4 4 4 4 4 4 4 2 2 3 4 3 3 3 5 6
2 2 2 3 3 3 4 3 3 4 4 5 5 6 6 6 6 6 6 6 6 6 6 6 6 6 5 5 5 5 4 3 3 4 3 2 2 2 2 2 2 3 4
3 3 3 3 4 4 4 4 4 4 5 5 6 6 6 6 6 6 6 6 6 6 6 6 6 7 7 6 6 6 5 4 4 4 3 2 2 2 2 2 2 1 2
3 3 3 3 3 3 3 3 3 4 4 4 5 5 5 6 6 7 6 6 6 5 5 5 5 6 7 7 6 6 6 5 5 5 4 3 3 3 4 3 2 1 2
3 4 3 2 2 3 3 3 3 3 4 4 4 5 5 5 7 8 7 6 6 6 5 4 4 5 6 8 9 9 8 7 7 5 4 5 5 4 3 3 2 1 2
4 3 2 2 2 3 3 3 3 3 3 4 4 4 5 6 7 7 7 6 6 6 6 5 4 4 5 3 5 6 6 8 8 7 7 6 5 5 5 4 4 4 3
3 3 2 2 2 2 3 3 4 3 4 4 4 4 4 5 6 6 6 5 5 5 5 6 5 5 4 4 4 3 3 4 6 5 5 5 5 6 6 5 4 2 1
3 3 3 2 2 3 3 3 3 3 3 3 3 4 4 4 6 6 4 3 3 4 4 5 5 5 6 6 5 4 3 3 4 6 5 5 5 5 5 3 3 3 2
4 4 3 3 3 3 3 3 3 3 3 3 3 3 4 4 5 5 5 3 3 3 3 4 5 5 6 5 5 5 5 4 3 3 2 2 2 3 4 4 4 4 2
3 3 3 2 2 3 2 2 3 2 2 2 2 2 3 3 4 4 4 3 3 3 3 3 3 5 5 6 5 5 6 4 4 4 3 2 2 2 2 2 3 3 3
3 2 2 2 1 1 1 2 2 3 3 2 2 1 1 2 2 3 3 2 3 3 3 3 3 5 5 5 4 5 5 4 4 4 3 2 2 2 1 1 2 2 2
2 2 2 1 1 0 1 2 2 3 3 2 2 1 1 1 1 1 1 1 1 1 2 3 3 3 3 2 3 3 3 3 3 3 3 2 2 2 2 2 2 2 1
1 2 1 1 1 1 0 1 2 3 3 3 2 2 1 1 1 1 1 1 1 1 1 2 2 3 2 2 2 2 2 2 3 3 2 2 2 2 2 2 2 1 1
1 1 1 1 1 1 1 0 0 1 3 3 3 3 3 2 1 1 1 2 2 2 3 3 2 2 2 2 2 2 2 2 2 2 2 3 2 2 1 1 1 1 1
1 1 1 1 1 1 1 2 2 2 2 1 2 2 1 2 2 2 2 3 3 4 4 3 2 2 2 2 2 2 2 2 2 2 2 2 2 2 1 1 1 1 1
0 0 0 0 1 1 2 2 1 2 3 3 3 4 4 4 4 4 4 4 4 5 4 3 2 2 2 2 2 2 1 1 2 2 2 2 2 2 2 1 1 1 1
0 0 0 0 1 1 2 2 2 2 2 2 3 4 5 5 5 5 5 5 4 4 3 3 2 2 2 1 2 2 1 1 2 2 2 2 2 2 2 2 2 2 2
0 0 0 1 1 1 2 2 2 2 2 2 2 3 4 5 5 5 5 4 3 2 2 2 2 1 1 1 1 1 1 1 1 1 1 2 2 2 2 2 2 3 2
0 0 1 1 1 2 2 2 2 2 2 2 2 1 2 3 3 3 3 3 2 2 2 1 1 1 1 1 1 1 1 1 2 2 2 2 2 2 2 3 3 2 2
0 1 1 1 1 1 2 2 2 2 2 1 1 1 2 2 2 1 1 1 1 1 1 1 1 1 1 1 1 1 1 1 1 2 2 2 2 2 2 3 3 3 2
1 1 1 1 1 1 2 2 2 2 2 2 1 1 2 2 1 1 1 1 1 1 1 1 1 1 1 1 1 1 1 2 2 2 2 2 3 3 3 3 3 3 3
1 2 1 1 1 2 2 2 2 2 2 1 1 1 1 1 1 1 0 0 0 0 0 1 1 1 1 2 3 3 3 3 3 3 3 3 3 3 3 3 4 3 3
2 2 2 1 2 2 2 1 1 1 1 1 1 1 1 1 0 1 1 0 0 1 1 1 2 2 2 2 3 4 5 5 5 5 5 4 3 3 3 3 4 4 4
2 2 2 2 1 1 1 1 1 1 1 1 1 1 1 1 1 1 1 1 1 1 2 2 3 3 4 5 5 6 6 7 6 6 6 5 4 4 4 4 4 4 4
2 2 1 1 1 1 1 1 1 1 1 1 1 1 1 1 1 1 1 1 1 2 2 3 4 5 6 6 7 7 8 8 8 7 6 6 5 4 4 4 4 5 5
Wind_Direction
258 249 229 223 215 207 213 218 215 207 197 197 200 199 198 195 192 191 196 193 197 201 193 194 204 195 192 193 189 191 201 193 218 241 227 227 209 215 241 238 235 235 242
263 255 240 225 213 213 225 224 217 211 207 204 202 203 202 199 197 196 201 199 201 205 203 199 206 200 201 198 196 201 206 203 203 220 223 214 224 214 219 232 241 235 240
273 260 248 228 217 222 231 228 218 214 212 206 201 206 205 204 203 200 201 203 207 210 208 206 206 200 208 208 205 206 208 208 198 199 212 207 223 210 207 239 253 252 248
283 262 249 237 227 224 225 222 214 210 207 209 207 211 207 207 208 204 203 204 208 211 210 210 209 206 209 208 210 208 201 202 190 188 197 202 208 205 192 209 256 256 265
285 270 263 254 236 224 217 216 210 209 210 209 208 213 210 208 209 204 204 203 204 207 211 216 219 219 217 212 211 205 196 199 192 190 196 200 208 195 206 203 231 255 269
289 274 268 249 226 218 211 207 203 205 205 200 207 205 208 216 219 212 204 195 195 202 211 217 223 221 227 228 225 218 202 198 198 198 206 209 216 209 200 201 204 218 257
297 287 277 247 224 217 201 190 198 204 204 203 208 202 212 220 218 218 211 191 194 200 204 207 217 221 223 216 226 226 221 217 212 204 203 210 206 203 192 202 206 212 235
303 299 290 253 230 213 195 194 198 203 205 210 208 207 215 224 219 217 214 186 194 202 203 203 206 210 212 202 197 204 212 220 219 212 203 203 201 195 192 197 195 197 282
307 304 294 267 228 208 207 207 205 206 213 211 211 208 214 228 224 213 197 180 193 203 204 203 201 203 214 210 194 194 203 215 214 210 214 211 214 212 199 167 169 177 228
303 303 299 280 236 215 214 213 208 204 207 210 219 210 212 224 230 215 196 182 193 197 197 203 210 210 216 215 196 189 199 202 180 169 172 181 183 197 202 185 181 185 192
310 313 310 294 251 215 208 201 188 188 185 193 204 218 213 223 232 220 206 190 193 192 198 203 209 217 225 223 209 192 202 189 168 161 152 145 136 141 159 175 187 191 197
320 320 321 314 281 163 170 186 179 170 167 171 174 205 224 234 238 231 224 214 197 188 198 199 204 218 222 218 208 192 191 163 138 145 151 159 161 164 139 148 166 187 208
330 322 317 323 331 241 182 184 171 165 172 184 183 198 232 232 223 228 208 201 201 180 187 197 194 192 193 185 170 167 153 136 139 150 163 170 163 157 137 115 107 105 75
336 335 345 10 15 23 118 181 179 178 181 187 185 191 199 194 170 143 140 130 126 125 129 144 135 118 108 103 110 97 99 124 138 144 140 137 128 130 136 137 144 135 110
353 356 8 30 64 41 27 10 190 216 202 188 193 185 178 187 205 175 144 161 157 157 132 111 104 106 107 96 87 88 93 98 106 117 130 134 134 138 140 137 146 137 156
11 7 21 52 73 84 85 48 44 56 67 129 156 152 157 154 147 146 134 135 138 140 132 134 136 135 138 136 126 107 97 106 119 129 133 139 148 154 152 130 121 149 172
195 305 346 90 118 129 128 121 83 48 60 77 90 95 102 109 107 108 108 109 107 109 109 118 129 134 136 137 135 132 133 124 123 129 131 133 142 148 146 148 153 153 181
17 305 17 164 160 148 147 145 138 127 105 75 67 75 77 80 84 86 92 93 83 74 88 100 106 111 117 129 140 145 143 129 127 129 134 143 152 157 162 170 176 181 197
351 263 90 109 116 124 130 130 126 122 116 103 81 67 65 69 70 69 72 85 94 89 87 87 92 99 106 110 125 154 162 160 147 144 154 160 165 164 176 184 186 201 203
121 76 82 103 110 114 122 130 130 129 121 110 100 81 77 75 73 57 59 78 91 96 97 103 103 102 112 126 137 140 164 175 172 177 182 183 181 180 187 191 193 196 207
133 128 84 78 112 126 130 132 132 130 129 122 110 113 100 106 103 90 82 88 102 117 123 126 128 129 132 129 151 174 191 213 206 196 196 194 190 194 199 198 200 200 203
139 139 127 124 124 128 124 124 123 126 133 131 110 82 75 90 106 105 101 86 90 110 129 149 166 170 182 182 180 195 211 222 222 213 211 204 197 198 199 199 198 199 198
143 138 126 116 115 119 103 110 121 128 133 137 135 109 95 104 112 122 127 115 102 118 224 193 180 208 228 222 211 200 208 225 219 207 203 206 203 204 201 203 205 205 209
145 147 146 138 124 122 121 123 128 136 142 144 142 140 144 155 193 229 219 181 199 251 258 244 225 223 239 248 245 235 231 232 227 217 206 196 205 207 205 208 212 211 214
138 140 141 143 144 144 139 141 146 147 150 160 169 176 176 194 230 251 230 212 227 244 258 256 245 242 246 251 253 251 251 253 248 227 209 200 202 210 210 214 215 214 218
126 127 131 135 144 151 156 163 170 170 180 198 200 202 209 220 235 240 230 226 235 248 260 261 253 254 258 260 259 258 259 261 259 247 221 203 202 213 213 218 218 220 221
Height
1465 1466 1468 1469 1471 1473 1475 1477 1479 1482 1484 1486 1488 1490 1493 1495 1496 1498 1500 1502 1503 1505 1507 1509 1510 1512 1514 1516 1517 1519 1520 1521 1521 1522 1524 1525 1527 1528 1528 1529 1529 1529 1530
1461 1462 1463 1465 1467 1469 1471 1473 1475 1477 1479 1481 1484 1486 1488 1490 1491 1493 1495 1496 1498 1500 1502 1503 1505 1507 1508 1510 1511 1513 1514 1515 1516 1516 1518 1520 1521 1522 1523 1524 1524 1524 1524
1457 1458 1459 1460 1462 1464 1467 1469 1470 1472 1474 1477 1479 1481 1483 1485 1486 1488 1490 1491 1493 1495 1496 1498 1499 1501 1502 1504 1505 1507 1508 1509 1510 1511 1512 1514 1516 1517 1518 1518 1519 1518 1519
1453 1454 1454 1456 1457 1460 1462 1464 1466 1468 1470 1472 1474 1476 1478 1480 1482 1483 1485 1486 1488 1489 1491 1492 1494 1495 1496 1498 1499 1501 1502 1503 1504 1505 1506 1508 1510 1511 1512 1513 1513 1513 1513
1449 1450 1450 1451 1453 1455 1457 1459 1461 1463 1465 1467 1469 1471 1473 1474 1476 1478 1480 1481 1482 1483 1485 1487 1488 1490 1491 1492 1494 1495 1496 1497 1498 1499 1500 1502 1503 1505 1506 1507 1508 1508 1508
1446 1446 1446 1447 1449 1450 1452 1454 1456 1458 1460 1462 1464 1466 1467 1469 1471 1473 1475 1476 1477 1478 1479 1481 1483 1484 1485 1487 1488 1489 1491 1492 1493 1494 1494 1496 1497 1499 1501 1502 1502 1503 1503
1442 1442 1443 1444 1445 1446 1448 1449 1451 1453 1455 1457 1459 1461 1462 1464 1466 1468 1469 1470 1471 1473 1474 1476 1477 1478 1480 1481 1482 1483 1485 1486 1488 1489 1489 1490 1492 1494 1495 1496 1497 1497 1497
1439 1439 1439 1440 1441 1442 1443 1444 1446 1449 1450 1452 1454 1456 1458 1460 1461 1463 1464 1465 1466 1467 1469 1470 1471 1473 1474 1475 1476 1477 1479 1480 1482 1483 1484 1485 1487 1489 1490 1491 1492 1492 1493
1436 1436 1436 1437 1437 1438 1439 1441 1442 1444 1446 1448 1450 1451 1453 1455 1457 1458 1460 1460 1461 1462 1464 1465 1466 1467 1469 1470 1471 1472 1473 1475 1477 1478 1479 1481 1482 1484 1485 1486 1486 1487 1487
1433 1432 1433 1433 1434 1435 1436 1437 1439 1441 1442 1444 1446 1447 1449 1450 1452 1453 1455 1456 1457 1458 1459 1460 1461 1462 1464 1464 1465 1466 1467 1469 1471 1472 1474 1476 1477 1479 1480 1481 1482 1482 1482
1430 1430 1430 1430 1430 1431 1433 1434 1435 1437 1439 1440 1442 1443 1445 1446 1448 1449 1450 1452 1452 1453 1454 1455 1457 1458 1459 1460 1461 1462 1463 1465 1466 1468 1469 1471 1472 1474 1475 1476 1477 1478 1478
1428 1427 1427 1427 1428 1428 1430 1431 1432 1434 1435 1436 1438 1439 1441 1443 1444 1445 1446 1448 1449 1449 1450 1451 1453 1454 1455 1456 1457 1458 1460 1461 1462 1463 1465 1466 1467 1469 1470 1472 1472 1473 1474
1425 1424 1424 1424 1425 1426 1427 1428 1429 1431 1432 1433 1434 1436 1437 1439 1440 1442 1443 1444 1445 1446 1446 1448 1449 1450 1451 1452 1453 1454 1456 1457 1458 1459 1461 1462 1463 1465 1466 1467 1468 1469 1470
1422 1422 1422 1422 1422 1423 1424 1425 1426 1427 1428 1430 1431 1432 1434 1436 1436 1438 1439 1440 1441 1443 1443 1445 1446 1447 1448 1449 1450 1451 1452 1454 1454 1456 1457 1458 1459 1460 1462 1463 1464 1465 1465
1420 1420 1420 1420 1421 1421 1422 1423 1424 1425 1427 1428 1429 1430 1431 1432 1434 1435 1436 1437 1438 1439 1440 1442 1443 1444 1445 1446 1447 1448 1449 1450 1451 1452 1453 1454 1456 1457 1458 1460 1460 1461 1462
1418 1418 1418 1418 1418 1419 1420 1421 1423 1424 1425 1426 1427 1428 1429 1431 1431 1432 1433 1434 1435 1436 1437 1438 1440 1441 1442 1443 1444 1445 1446 1447 1448 1449 1450 1451 1453 1454 1455 1456 1457 1458 1458
1417 1417 1417 1417 1417 1417 1418 1419 1421 1423 1424 1425 1425 1426 1427 1429 1429 1430 1431 1432 1433 1434 1435 1436 1437 1438 1440 1441 1442 1443 1444 1445 1446 1446 1447 1448 1450 1451 1452 1452 1453 1454 1455
1416 1416 1416 1416 1416 1416 1417 1418 1419 1420 1422 1423 1425 1425 1426 1427 1428 1429 1429 1430 1431 1432 1433 1434 1435 1436 1437 1439 1439 1440 1441 1442 1443 1444 1445 1446 1447 1448 1449 1449 1450 1451 1452
1415 1415 1415 1415 1415 1415 1416 1417 1418 1419 1420 1421 1423 1424 1425 1426 1427 1428 1428 1428 1429 1430 1432 1433 1434 1435 1436 1436 1437 1438 1439 1440 1440 1441 1442 1443 1444 1445 1445 1446 1447 1448 1448
1414 1414 1414 1414 1414 1414 1415 1416 1417 1418 1419 1420 1421 1422 1423 1424 1425 1425 1426 1427 1427 1429 1430 1431 1432 1433 1433 1434 1435 1436 1436 1437 1438 1438 1439 1440 1441 1441 1442 1443 1444 1444 1445
1412 1413 1413 1413 1413 1414 1414 1415 1416 1417 1418 1419 1420 1422 1422 1423 1423 1424 1425 1425 1426 1427 1428 1429 1430 1431 1431 1432 1432 1433 1433 1434 1435 1435 1436 1437 1437 1438 1439 1440 1440 1441 1441
1411 1411 1412 1412 1412 1413 1413 1414 1415 1416 1417 1418 1419 1420 1421 1421 1422 1422 1423 1424 1425 1426 1426 1427 1427 1428 1428 1429 1429 1430 1430 1431 1431 1432 1433 1433 1434 1435 1435 1436 1436 1437 1437
1410 1411 1411 1411 1412 1412 1413 1413 1414 1415 1416 1417 1418 1418 1419 1420 1420 1421 1421 1422 1423 1423 1424 1424 1425 1425 1426 1426 1426 1427 1427 1427 1428 1428 1429 1429 1430 1431 1431 1432 1432 1433 1434
1409 1410 1410 1410 1411 1411 1412 1412 1413 1414 1414 1415 1416 1417 1417 1418 1418 1419 1419 1420 1420 1421 1421 1422 1422 1422 1422 1423 1423 1423 1424 1424 1424 1425 1425 1426 1426 1427 1427 1428 1429 1429 1430
1408 1408 1409 1409 1410 1410 1411 1411 1412 1412 1413 1414 1414 1415 1415 1416 1416 1416 1417 1417 1417 1418 1418 1418 1419 1419 1419 1419 1419 1420 1420 1420 1421 1421 1421 1422 1422 1423 1423 1424 1424 1425 1426
1407 1407 1408 1408 1409 1409 1410 1410 1411 1411 1412 1412 1413 1413 1413 1414 1414 1414 1414 1414 1414 1415 1415 1415 1415 1415 1415 1415 1415 1416 1416 1416 1417 1417 1417 1418 1418 1419 1419 1420 1420 1421 1421